Location: Brno
(49.2000°N, 16.6330°E)
Time: 13:57:54
(UTC+02:00)

Iridium 2 - Visible Passes

Search period start: 23 July 2014 00:00
Search period end: 02 August 2014 00:00
Orbit: 535 x 549 km, 85.5° (Epoch: 21 July)

Date Brightness Start Highest point End Pass type
(mag) Time Alt. Az. Time Alt. Az. Time Alt. Az.
23 Jul 4.6 01:23:04 36° WSW 01:23:44 39° W 01:27:28 10° N visible
23 Jul 5.6 23:40:55 18° E 23:41:28 19° E 23:44:15 10° NE visible
24 Jul 4.6 01:16:28 37° WSW 01:17:06 40° W 01:20:51 10° N visible
24 Jul 5.6 23:34:19 18° E 23:34:50 19° E 23:37:36 10° NE visible
25 Jul 4.6 01:09:52 37° WSW 01:10:28 40° W 01:14:13 10° N visible
25 Jul 5.6 23:27:42 18° E 23:28:12 19° E 23:30:58 10° NE visible
26 Jul 4.6 01:03:16 38° WSW 01:03:50 40° W 01:07:36 10° N visible
26 Jul 5.6 23:21:05 18° E 23:21:34 18° E 23:24:19 10° NE visible
27 Jul 4.6 00:56:39 38° WSW 00:57:12 41° W 01:00:58 10° N visible
27 Jul 5.6 23:14:28 18° E 23:14:56 18° E 23:17:40 10° NE visible
28 Jul 4.5 00:50:02 39° WSW 00:50:34 41° W 00:54:20 10° N visible
28 Jul 5.6 23:07:50 18° E 23:08:18 18° E 23:11:01 10° NE visible
29 Jul 4.5 00:43:24 39° WSW 00:43:55 42° W 00:47:42 10° N visible
29 Jul 5.6 23:01:12 18° E 23:01:40 18° E 23:04:22 10° NE visible
30 Jul 4.5 00:36:45 40° WSW 00:37:17 42° W 00:41:04 10° N visible
30 Jul 5.6 22:54:33 17° E 22:55:02 18° E 22:57:43 10° NE visible
31 Jul 4.5 00:30:06 40° WSW 00:30:38 43° W 00:34:26 10° N visible
31 Jul 5.6 22:47:54 17° E 22:48:24 18° E 22:51:04 10° NE visible
01 Aug 4.5 00:23:27 40° WSW 00:24:00 43° W 00:27:48 10° N visible
01 Aug 5.6 22:41:14 17° E 22:41:45 18° E 22:44:24 10° NE visible
